STARLINK-32569, 61867

Orbit data source: Space-Track

STARLINK-32569, 61867 is a payload satellite owned by SpaceX/Seattle (US) in LEO that was launched on Thu, 07 Nov 2024 UTC via an FALCON 9 launch vehicle from the Air Force Eastern Test Range (AFETR). Payload-class satellites include a variety of spacecraft equipped with specific instruments for various scientific and technological missions. These include communications satellites like Starlink; space stations such as the ISS; scientific satellites like the Hubble; Earth observation satellites from companies like Planet Labs, Umbra, and HawkEye 360; GPS; miniature CubeSats for education and research; and military/defense satellites.

Loading next visibility...
Identifier
61867, 2024-202Y
Orbit
LEO
Last TLE update
14 hours ago
Origin
Manufacturer
SpaceX/Seattle
Mission
Operational Commercial Communications
Bus & Motor
STARLINK V2M, Unknown motor
Mass
730 kg wet, ~700 kg dry
Launch date (UTC)
2024-11-07 (8 months ago)
Launch vehicle
FALCON 9
Launch site
Air Force Eastern Test Range (AFETR)
Object type
Payload
Rocket body
Debris
Shape & HBR
Box + 2 Pan, 29 m
Radar Cross Section
33.884 m², Large (>1 m²)

Expand to show TLE details & history

TLE from 14 hours ago
0 STARLINK-32569
1 61867U 24202Y   25186.40257515 -.00000058  00000-0  73977-5 0  9991
2 61867  43.0014 194.9327 0000918 268.1686  91.9060 15.27577192 37519
Epoch: 2025-07-05T09:39Z
TLE epoch observation values (Epoch: 2025-07-05T09:39:42.492Z)
Latitude
-0.00008°
Longitude
126.36444°
Altitude
482.854 km
Speed
7.626 km/s
True Right ascension
12h 59m 43s
True Declination
0° 00' 00"
Sunlit
Object was in daylight at epoch
Visualization orbit readout
Latitude
-42.47001°
Longitude
45.66092°
Altitude
495.497 km
Speed
7.618 km/s
Apparent Right ascension
03h 37m 17s
Apparent Declination
-61° 31' 28"
Sunlit
Object is in daylight
Visualization observer readout
Local Sidereal Time
11:22:19
Azimuth
218.433° SW
Elevation
-46.539°
Doppler factor
1
Orbital elements
Apogee altitude
485.632 km
Perigee altitude
484.372 km
Semi-major axis
6,863.139 km
Eccentricity
0.00009
Inclination
43.0014°
RAAN
194.9327°
Arg. of periapsis
268.1686°
True anomaly
Unknown
Mean anomaly
91.906°
Eccentric anomaly
Unknown
Mean motion
3.81732 °/min
Orbital period
94.31 mins
BSTAR
0.0000073977
Loading maneuver chart data...
Loading SW <> Apogee altitude chart data...
Loading historical data...
Loading historical data...
Loading historical data...
Loading historical data...
Loading historical data...
Loading historical data...
Loading historical data...

STARLINK-32569 Visibility forecast

Observer location: undefined°, undefined°

Span
Click to sort rows by Start time (UTC) header in descending order
Start Az.
Max El. time (UTC)
Max El. Az.
Max El.
End time (UTC)
End Az.
4 mins2025-07-06 03:06:58.606Z178.883° S2025-07-06 03:08:58.606Z139.363° SSE18.052°2025-07-06 03:10:58.606Z103.356° ESE
6 mins2025-07-06 04:44:58.606Z244.622° WSW2025-07-06 04:46:58.606Z222.26° SW43.135°2025-07-06 04:50:58.606Z72.998° E
6 mins2025-07-06 06:23:58.606Z285.463° WNW2025-07-06 06:25:58.606Z328.157° NNW36.681°2025-07-06 06:29:58.606Z74.444° E
6 mins2025-07-06 08:02:58.606Z291.138° WNW2025-07-06 08:05:58.606Z63.242° ENE42.676°2025-07-06 08:08:58.606Z100.399° ESE
4 mins2025-07-06 09:42:58.606Z251.553° W2025-07-06 09:43:58.606Z225.561° WSW26.632°2025-07-06 09:46:58.606Z154.553° SSE
|